This is the latest recevied weather packets stored in our database for station/object N0NPO. If no packets are shown the sender has not sent any weather packets the latest 10 day(s).
| Time | Temp. | Humidity | Pressure | Rain* | Wind** | Luminosity | Snow |
|---|---|---|---|---|---|---|---|
| 1778192618 | 17.78° C | 1% | 1013.1 hPa | 0 mm | - | 291 W/m² | - |
| 1778192315 | 17.78° C | 1% | 1013 hPa | 0 mm | - | 469 W/m² | - |
| 1778192012 | 18.33° C | 1% | 1012.9 hPa | 0 mm | - | 492 W/m² | - |
| 1778191707 | 17.22° C | 1% | 1013 hPa | 0 mm | - | 515 W/m² | - |
| 1778191406 | 17.22° C | 1% | 1013 hPa | 0 mm | - | 488 W/m² | - |
| 1778191102 | 17.22° C | 1% | 1013.2 hPa | 0 mm | - | 486 W/m² | - |
| 1778190799 | 17.78° C | 1% | 1013.2 hPa | 0 mm | - | 517 W/m² | - |
| 1778190497 | 17.78° C | 1% | 1013.5 hPa | 0 mm | - | 533 W/m² | - |
| 1778190194 | 17.78° C | 1% | 1013.4 hPa | 0 mm | - | 573 W/m² | - |
| 1778189888 | 16.67° C | 1% | 1013.4 hPa | 0 mm | - | 510 W/m² | - |
| 1778189586 | 17.22° C | 1% | 1013.5 hPa | 0 mm | - | 552 W/m² | - |
| 1778189283 | 17.22° C | 1% | 1013.6 hPa | 0 mm | - | 464 W/m² | - |
| 1778188979 | 17.22° C | 1% | 1013.7 hPa | 0 mm | - | 539 W/m² | - |
| 1778188675 | 17.22° C | 1% | 1013.6 hPa | 0 mm | - | 591 W/m² | - |
| 1778188372 | 16.67° C | 1% | 1013.6 hPa | 0 mm | - | 615 W/m² | - |
| 1778188069 | 16.67° C | 1% | 1013.7 hPa | 0 mm | - | 587 W/m² | - |
| 1778187766 | 17.22° C | 1% | 1013.7 hPa | 0 mm | - | 625 W/m² | - |
| 1778187462 | 16.67° C | 1% | 1013.8 hPa | 0 mm | - | 599 W/m² | - |
| 1778187159 | 16.67° C | 1% | 1013.9 hPa | 0 mm | - | 630 W/m² | - |
| 1778186855 | 16.67° C | 1% | 1013.8 hPa | 0 mm | - | 598 W/m² | - |
| 1778186553 | 16.67° C | 1% | 1014 hPa | 0 mm | - | 650 W/m² | - |
| 1778186251 | 17.22° C | 1% | 1013.8 hPa | 0 mm | - | 650 W/m² | - |
| 1778185948 | 16.67° C | 1% | 1013.8 hPa | 0 mm | - | 673 W/m² | - |
| 1778185644 | 16.11° C | 1% | 1013.9 hPa | 0 mm | - | 653 W/m² | - |
| 1778185340 | 16.67° C | 1% | 1014 hPa | 0 mm | - | 668 W/m² | - |
* Rain latest hour (hover to see other rain measurements)
** Current wind speed in m/s (hover to see current wind gust speed)